Location: Dehesa de la Cepeda
(40.6574°N, 4.3013°W)
Time: 10:31:42
(UTC+00:00)

Vanguard 2 Rocket - Pass Details

Date: 27 October 2021
Orbit: 555 x 3324 km, 32.9° (Epoch: 08 December)

Event Time Altitude Azimuth Distance (km) Brightness Sun altitude
Exits shadow 03:57:06 21° 210° (SSW) 4,794 10.2 -31.7°
Maximum altitude 04:07:04 39° 159° (SSE) 3,153 9.6 -29.9°
Drops below altitude 10° 04:17:03 10° 96° (E) 3,924 11.0 -28.0°
Sets 04:19:52 0° 88° (E) 4,585 11.8 -27.5°
